Date_and_time,latitude,longitude,wind_speed,RelWindDirFrom,WindDirFrom,air_pressure,air_temperature,relative_humidity,Temp,platform_speed_wrt_ground,air_pressure_at_mean_sea_level,platform_orientation
2019-09-16 23:50,51.134105,-96.6219433333333,5.9,7.8,84,981.02,23.1,65,17.55,0.8,1006.32,281.1
2019-09-17 00:00,51.1342183333333,-96.6219583333333,9.2,11.2,94,980.94,21.8,66,17.38,0.0,1006.30,266.9
2019-09-17 00:10,51.1343433333333,-96.6217083333333,5.2,10.7,134,981.10,22.2,67,17.50,0.1,1006.43,266.9
2019-09-17 00:40,51.1342966666667,-96.6218483333333,4.6,5.5,131,981.15,23.1,64,17.51,0.0,1006.51,266.9
2019-09-17 00:50,51.1343116666667,-96.62179,3.6,5.8,137,981.15,23.0,64,17.50,0.0,1006.49,266.9
2019-09-17 01:00,51.1342933333333,-96.6218216666667,2.5,3.7,148,981.20,22.9,66,17.51,0.0,1006.63,266.9
2019-09-17 01:10,51.1547733333333,-96.6131766666667,8.4,15.6,40,981.05,22.5,68,17.52,7.6,1006.53,266.9
2019-09-17 01:20,51.184365,-96.6000083333333,11.8,15.3,45,981.07,23.7,60,17.34,11.1,1006.46,266.9
2019-09-17 01:30,51.196935,-96.6147783333333,4.7,14.1,53,981.21,25.2,57,16.87,5.6,1006.57,266.9
2019-09-17 01:40,51.1970583333333,-96.61644,7.9,9.2,117,981.24,26.2,56,17.39,0.4,1006.60,266.9
2019-09-17 01:50,51.1970533333333,-96.61644,8.2,9.4,115,981.19,24.8,62,17.50,0.0,1006.67,266.9
2019-09-17 02:00,51.1970533333333,-96.6164433333333,6.5,7.7,110,981.16,23.9,66,17.62,0.0,1006.66,329.9
2019-09-17 02:10,51.197055,-96.6164416666667,5.8,7.1,104,981.14,23.0,70,17.56,0.0,1006.68,329.9
2019-09-17 02:20,51.1970566666667,-96.6164383333333,5.9,6.9,99,981.16,22.1,73,17.48,0.0,1006.70,329.9
2019-09-17 02:30,51.197055,-96.6164383333333,6.9,8.0,92,981.07,22.4,72,17.42,0.0,1006.59,329.9
2019-09-17 02:40,51.1970566666667,-96.61644,7.1,8.3,83,981.11,22.5,72,17.35,0.0,1006.63,329.9
2019-09-17 02:50,51.197055,-96.61644,6.9,7.7,81,981.06,22.5,73,17.28,0.0,1006.59,329.9
2019-09-17 03:00,51.197055,-96.61644,5.7,7.0,86,981.08,22.4,74,17.21,0.0,1006.63,3.1
2019-09-17 03:10,51.1970616666667,-96.6164633333333,6.1,7.7,97,981.01,21.9,76,17.14,0.0,1006.52,3.1
2019-09-17 03:20,51.197055,-96.61645,6.4,7.6,104,980.98,22.0,76,17.10,0.0,1006.42,3.1
2019-09-17 03:30,51.1970516666667,-96.6164466666667,6.6,7.8,104,980.92,22.0,75,17.09,0.0,1006.32,3.1
2019-09-17 03:40,51.1970516666667,-96.616445,7.1,9.5,108,980.81,22.1,75,17.07,0.0,1006.27,3.1
2019-09-17 03:50,51.1970516666667,-96.6164433333333,7.1,9.2,108,980.76,22.2,75,17.05,0.0,1006.25,3.1
2019-09-17 04:00,51.19705,-96.6164433333333,6.9,9.3,108,980.70,22.1,75,17.01,0.0,1006.23,3.2
2019-09-17 04:10,51.19705,-96.6164416666667,6.8,9.1,107,980.67,21.9,75,16.98,0.0,1006.24,3.2
2019-09-17 04:20,51.19705,-96.6164416666667,7.7,10.4,108,980.58,21.9,74,16.95,0.0,1006.14,3.2
2019-09-17 04:30,51.1970566666667,-96.6164333333333,8.4,10.8,110,980.48,22.0,74,16.94,0.0,1006.02,3.2
2019-09-17 04:40,51.1970533333333,-96.6164433333333,9.4,11.9,116,980.49,22.1,73,16.97,0.0,1006.03,3.2
2019-09-17 04:50,51.1970533333333,-96.6164366666667,9.5,12.6,116,980.44,22.4,72,17.02,0.0,1005.97,3.2
2019-09-17 05:00,51.19705,-96.61644,10.0,12.3,119,980.40,22.5,72,17.08,0.0,1005.95,360.0
2019-09-17 05:10,51.1970516666667,-96.61644,10.4,12.5,120,980.29,22.8,71,17.17,0.0,1005.82,360.0
2019-09-17 05:20,51.19705,-96.6164383333333,10.4,13.7,124,980.27,23.1,70,17.26,0.0,1005.79,360.0
2019-09-17 05:30,51.1970483333333,-96.6164333333333,9.7,12.3,130,980.26,23.9,66,17.33,0.0,1005.74,360.0
2019-09-17 05:40,51.1970533333333,-96.6164366666667,9.3,12.4,134,980.22,24.4,65,17.36,0.0,1005.67,360.0
2019-09-17 05:50,51.1970533333333,-96.6164366666667,10.3,13.4,132,980.22,24.2,66,17.37,0.0,1005.68,360.0
2019-09-17 06:00,51.197055,-96.6164383333333,8.7,11.5,140,980.24,24.1,67,17.37,0.0,1005.72,0.0
2019-09-17 06:10,51.197055,-96.6164366666667,8.2,11.9,141,980.25,23.6,69,17.37,0.0,1005.75,0.0
2019-09-17 06:20,51.197055,-96.6164383333333,7.1,10.3,149,980.31,22.9,72,17.35,0.0,1005.83,0.0
2019-09-17 06:30,51.197055,-96.6164383333333,8.9,13.2,142,980.24,23.0,72,17.33,0.0,1005.76,0.0
2019-09-17 06:40,51.197055,-96.6164383333333,11.0,13.6,140,980.16,22.8,73,17.31,0.0,1005.67,0.0
2019-09-17 06:50,51.197055,-96.6164383333333,10.8,13.5,136,980.11,23.5,71,17.29,0.0,1005.59,0.0
2019-09-17 07:00,51.1970433333333,-96.6164366666667,11.0,13.4,136,980.09,23.5,71,17.29,0.0,1005.55,90.0
2019-09-17 07:10,51.1970466666667,-96.616445,11.7,15.0,141,980.05,22.9,75,17.28,0.0,1005.52,90.0
2019-09-17 07:20,51.19705,-96.616445,12.3,16.6,143,979.99,22.5,78,17.28,0.0,1005.44,90.0
2019-09-17 07:30,51.1970533333333,-96.6164433333333,11.3,16.8,158,979.98,21.8,80,17.27,0.0,1005.44,90.0
2019-09-17 07:40,51.197055,-96.6164433333333,12.0,16.6,156,979.97,21.8,82,17.27,0.0,1005.44,90.0
2019-09-17 07:50,51.1970566666667,-96.6164433333333,12.4,16.6,150,979.94,22.2,82,17.26,0.0,1005.40,90.0
2019-09-17 08:00,51.1970566666667,-96.616445,11.3,14.9,148,979.99,22.1,84,17.27,0.0,1005.48,360.0
2019-09-17 08:10,51.1970583333333,-96.616445,10.8,15.0,153,980.01,21.8,86,17.28,0.0,1005.54,360.0
2019-09-17 08:20,51.1970583333333,-96.6164433333333,9.7,12.8,153,979.99,21.9,87,17.29,0.0,1005.51,360.0
2019-09-17 08:30,51.19706,-96.6164433333333,9.6,14.5,152,979.97,21.8,88,17.30,0.0,1005.50,360.0
2019-09-17 08:40,51.19706,-96.6164433333333,8.6,13.4,153,979.98,21.8,89,17.32,0.0,1005.48,360.0
2019-09-17 08:50,51.19706,-96.6164433333333,9.7,13.9,151,979.87,21.8,90,17.33,0.0,1005.37,360.0
2019-09-17 09:00,51.19706,-96.6164433333333,10.0,14.7,152,979.80,21.7,92,17.35,0.0,1005.33,90.0
2019-09-17 09:10,51.19706,-96.6164433333333,10.1,13.9,159,979.76,21.3,94,17.39,0.0,1005.32,90.0
2019-09-17 09:20,51.19706,-96.6164433333333,9.7,14.0,158,979.74,21.1,96,17.41,0.0,1005.35,90.0
2019-09-17 09:30,51.19706,-96.6164433333333,9.7,13.5,159,979.71,21.0,98,17.39,0.0,1005.31,90.0
2019-09-17 09:40,51.19706,-96.6164433333333,8.7,11.3,155,979.66,21.2,98,17.37,0.0,1005.23,90.0
2019-09-17 09:50,51.19705,-96.6164516666667,7.8,12.0,155,979.65,21.3,99,17.36,0.0,1005.22,90.0
2019-09-17 10:00,51.19704,-96.6164183333333,7.9,11.5,160,979.64,20.9,100,17.30,0.0,1005.25,107.2
2019-09-17 10:10,51.19703,-96.616455,8.7,12.2,161,979.56,20.8,100,17.22,0.0,1005.17,107.2
2019-09-17 10:20,51.1970433333333,-96.6164433333333,10.2,13.3,163,979.45,20.7,100,17.21,0.0,1005.06,107.2
2019-09-17 10:30,51.1970516666667,-96.6164483333333,11.6,15.6,166,979.37,20.7,100,17.23,0.0,1004.98,107.2
2019-09-17 10:40,51.19705,-96.6164483333333,12.6,15.5,166,979.33,20.6,100,17.24,0.0,1004.94,107.2
2019-09-17 10:50,51.1970533333333,-96.6164466666667,12.4,15.3,172,979.34,20.5,100,17.31,0.0,1004.96,107.2
2019-09-17 11:00,51.1970533333333,-96.6164466666667,14.0,18.0,172,979.30,20.6,100,17.31,0.0,1004.94,90.0
2019-09-17 11:10,51.1970533333333,-96.6164466666667,13.8,17.7,174,979.37,20.7,100,17.30,0.0,1005.01,90.0
2019-09-17 11:20,51.197055,-96.6164466666667,14.2,17.7,172,979.34,20.6,100,17.31,0.0,1004.99,90.0
2019-09-17 11:30,51.197055,-96.6164483333333,14.0,17.3,171,979.29,20.5,100,17.26,0.0,1004.93,90.0
2019-09-17 11:40,51.197055,-96.6164483333333,14.6,17.2,169,979.30,20.5,100,17.25,0.0,1004.94,90.0
2019-09-17 11:50,51.197055,-96.6164483333333,14.5,19.5,171,979.42,20.5,100,17.39,0.0,1005.08,90.0
2019-09-17 12:00,51.197055,-96.6164483333333,14.3,17.8,169,979.41,20.4,100,17.44,0.0,1005.08,270.0
2019-09-17 12:10,51.1970283333333,-96.61647,15.3,18.4,171,979.46,20.5,100,17.47,0.0,1005.13,270.0
2019-09-17 12:20,51.2047416666667,-96.6048533333333,15.0,23.4,142,979.38,21.0,99,17.34,3.8,1005.03,270.0
2019-09-17 12:30,51.2335366666667,-96.6248566666667,6.2,12.5,147,979.58,23.2,85,16.59,11.3,1005.14,270.0
2019-09-17 12:40,51.2378233333333,-96.660875,12.8,22.7,178,979.67,21.0,100,16.38,8.3,1005.33,270.0
2019-09-17 12:50,51.232025,-96.68322,16.5,21.4,166,979.68,20.4,100,16.56,5.5,1005.36,270.0
2019-09-17 13:00,51.2292183333333,-96.6939416666667,14.4,16.2,157,979.70,19.8,100,16.77,2.6,1005.41,303.6
2019-09-17 13:10,51.227175,-96.705145,15.7,18.1,154,979.57,19.6,100,16.68,2.6,1005.28,303.6
2019-09-17 13:20,51.2219583333333,-96.7156666666667,16.3,20.8,151,979.46,20.0,100,16.63,3.0,1005.16,303.6
2019-09-17 13:30,51.2172266666667,-96.7244183333333,17.1,21.6,161,979.15,20.6,100,16.38,2.6,1004.81,303.6
2019-09-17 13:40,51.2172066666667,-96.7244183333333,16.2,20.8,159,979.02,20.9,100,16.27,0.0,1004.67,303.6
2019-09-17 13:50,51.2172,-96.7244583333333,16.4,20.5,160,979.08,21.1,100,16.25,0.0,1004.72,303.6
2019-09-17 14:00,51.224785,-96.7085066666667,16.1,21.2,140,979.09,21.2,99,16.22,4.5,1004.73,295.7
2019-09-17 14:10,51.2429566666667,-96.6698183333333,17.5,22.4,117,979.29,20.7,100,16.48,10.9,1004.93,295.7
2019-09-17 14:20,51.267445,-96.640115,14.6,19.0,121,979.42,21.2,98,16.52,11.1,1004.94,295.7
2019-09-17 14:30,51.2945916666667,-96.6148833333333,12.8,18.1,117,979.43,21.0,98,16.38,11.3,1005.05,295.7
2019-09-17 14:40,51.3108183333333,-96.6002716666667,13.9,18.2,144,979.35,22.3,90,16.46,6.7,1004.95,295.7
2019-09-17 14:50,51.317965,-96.5939366666667,15.0,19.5,160,979.33,23.3,83,16.49,2.9,1004.91,295.7
2019-09-17 15:00,51.3264666666667,-96.5904233333333,15.8,20.3,155,979.26,24.2,77,16.45,3.2,1004.80,7.2
2019-09-17 15:10,51.3355333333333,-96.585875,15.2,20.7,155,979.28,24.7,75,16.57,3.4,1004.79,7.2
2019-09-17 15:20,51.3383666666667,-96.5777233333333,18.2,23.0,164,978.92,23.5,81,16.49,2.1,1004.45,7.2
2019-09-17 15:30,51.3383616666667,-96.57771,19.0,23.6,172,978.68,23.3,80,16.49,0.0,1004.20,7.2
2019-09-17 15:40,51.338385,-96.5775983333333,18.8,24.0,173,978.72,23.5,79,16.50,0.0,1004.23,7.2
2019-09-17 15:50,51.3382316666667,-96.57759,19.1,24.6,174,978.69,23.6,77,16.50,0.1,1004.18,7.2
2019-09-17 16:00,51.3623683333333,-96.5908716666667,9.6,21.3,171,979.26,23.4,76,16.56,9.2,1004.79,25.8
2019-09-17 16:10,51.392195,-96.6063416666667,7.6,10.4,172,979.35,22.6,79,16.83,11.3,1004.90,25.8
2019-09-17 16:20,51.4105283333333,-96.6156516666667,8.7,14.1,163,979.35,22.5,77,16.59,6.9,1004.91,25.8
2019-09-17 16:30,51.41874,-96.6193933333333,12.0,14.3,163,979.33,22.2,80,16.60,3.1,1004.85,25.8
2019-09-17 16:40,51.42661,-96.6233083333333,11.5,13.3,163,979.32,22.1,78,16.58,3.0,1004.80,25.8
2019-09-17 16:50,51.4347733333333,-96.6287033333333,12.2,14.6,167,979.31,21.9,79,16.60,3.2,1004.76,25.8
2019-09-17 17:00,51.4419466666667,-96.6338733333333,12.9,16.6,172,979.19,21.8,81,16.52,2.8,1004.62,12.1
2019-09-17 17:10,51.4419216666667,-96.6340183333333,14.8,18.2,174,978.92,21.9,81,16.47,0.0,1004.39,12.1
2019-09-17 17:20,51.44194,-96.6340616666667,15.2,16.8,176,978.91,22.0,81,16.48,0.0,1004.38,12.1
2019-09-17 17:30,51.4419383333333,-96.63408,14.3,16.2,174,978.90,21.9,81,16.49,0.0,1004.37,12.1
2019-09-17 17:40,51.44195,-96.634035,13.2,14.7,174,978.91,21.7,82,16.52,0.0,1004.38,12.1
2019-09-17 17:50,51.4413983333333,-96.6339333333333,13.3,15.8,172,978.82,21.7,82,16.55,0.2,1004.30,12.1
2019-09-17 18:00,51.46718,-96.65038,5.1,15.2,184,979.10,21.7,80,16.55,10.0,1004.62,345.1
2019-09-17 18:10,51.496805,-96.666265,5.4,7.2,174,978.97,22.1,78,16.57,11.2,1004.48,345.1
2019-09-17 18:20,51.526605,-96.6822066666667,6.3,8.6,161,978.86,22.9,75,16.50,11.3,1004.35,345.1
2019-09-17 18:30,51.55673,-96.6978116666667,6.0,8.4,147,978.69,23.9,70,16.45,11.4,1004.13,345.1
2019-09-17 18:40,51.5860466666667,-96.6978266666667,8.3,14.9,119,978.54,23.0,75,16.69,10.6,1004.02,345.1
2019-09-17 18:50,51.6029683333333,-96.68037,12.9,15.6,127,978.48,20.9,85,16.78,7.2,1004.06,345.1
2019-09-17 19:00,51.6073933333333,-96.6800933333333,11.8,14.1,154,978.53,20.4,87,16.73,1.6,1004.12,347.3
2019-09-17 19:10,51.6067483333333,-96.6803116666667,13.2,14.8,152,978.25,20.6,87,16.72,0.2,1003.83,347.3
2019-09-17 19:20,51.61949,-96.69278,7.8,14.4,163,978.37,20.6,86,16.73,5.4,1003.95,347.3
2019-09-17 19:30,51.6471216666667,-96.7185116666667,1.0,4.1,163,978.35,21.3,80,16.76,11.5,1003.91,347.3
2019-09-17 19:40,51.6733,-96.7478416666667,1.2,7.1,326,978.25,20.9,83,16.81,11.5,1003.82,347.3
2019-09-17 19:50,51.7001633333333,-96.7764083333333,1.4,5.6,109,978.03,21.0,82,16.90,11.6,1003.59,347.3
2019-09-17 20:00,51.7148333333333,-96.7904216666667,9.4,15.5,143,977.76,22.0,77,16.77,6.1,1003.25,340.4
2019-09-17 20:10,51.7150783333333,-96.7895883333333,14.5,16.9,147,977.44,21.0,83,16.83,0.2,1002.94,340.4
2019-09-17 20:20,51.7154033333333,-96.7899433333333,14.0,16.5,154,977.26,21.7,78,16.86,0.1,1002.68,340.4
2019-09-17 20:30,51.7117666666667,-96.7938033333333,13.6,16.7,155,977.27,20.9,82,16.87,1.6,1002.76,340.4
2019-09-17 20:40,51.7120583333333,-96.793495,12.2,14.4,151,977.35,20.7,83,16.80,0.1,1002.94,340.4
2019-09-17 20:50,51.71187,-96.7940116666667,10.1,13.6,147,977.30,20.5,84,16.78,0.1,1002.93,340.4
2019-09-17 21:00,51.73088,-96.8094333333333,2.9,9.7,138,977.36,20.7,81,16.83,7.7,1002.97,339.5
2019-09-17 21:10,51.74988,-96.8292716666667,6.0,14.3,164,977.31,21.7,75,16.85,8.1,1002.88,339.5
2019-09-17 21:20,51.7516133333333,-96.8277633333333,14.5,16.6,158,977.01,23.3,70,16.73,0.7,1002.46,339.5
2019-09-17 21:30,51.7515783333333,-96.827495,12.0,14.6,155,976.98,22.4,75,16.80,0.1,1002.49,339.5
2019-09-17 21:40,51.7470416666667,-96.82497,7.6,16.9,138,976.99,20.5,85,16.82,1.7,1002.58,339.5
2019-09-17 21:50,51.7197683333333,-96.8096083333333,18.3,20.9,151,976.38,22.0,76,16.82,10.4,1001.84,339.5
2019-09-17 22:00,51.69246,-96.7923183333333,22.5,25.0,162,976.02,24.6,65,16.90,10.6,1001.41,320.7
2019-09-17 22:10,51.6663633333333,-96.770065,22.5,24.6,160,976.17,24.7,66,17.02,10.6,1001.52,320.7
2019-09-17 22:20,51.641125,-96.7863783333333,21.2,23.5,184,976.01,25.1,63,16.89,9.8,1001.38,320.7
2019-09-17 22:30,51.6393166666667,-96.8027466666667,9.6,18.2,189,976.59,27.4,55,17.39,3.7,1001.88,320.7
2019-09-17 22:40,51.6393283333333,-96.8027716666667,6.9,10.3,165,976.69,30.7,47,18.15,0.0,1001.85,320.7
2019-09-17 22:50,51.63933,-96.8027666666667,7.8,11.7,163,976.72,30.1,49,17.72,0.0,1001.90,320.7
2019-09-17 23:00,51.6393316666667,-96.802765,10.2,15.4,161,976.66,29.6,49,17.61,0.0,1001.81,185.8
2019-09-17 23:10,51.63933,-96.802765,10.5,14.5,156,976.58,29.3,48,17.39,0.0,1001.68,185.8
2019-09-17 23:20,51.6393283333333,-96.8027716666667,10.2,15.2,151,976.54,28.8,50,17.34,0.0,1001.70,185.8
2019-09-17 23:30,51.6393266666667,-96.80277,8.4,13.3,151,976.63,28.1,53,17.34,0.0,1001.90,185.8
2019-09-17 23:40,51.639325,-96.80277,11.3,17.4,152,976.65,27.7,54,17.38,0.0,1001.88,185.8
